sat.trackr.live / text

‹ back to catalog

STARLINK-5639

NORAD 55365 · 2023-013AL

PAYLOAD ACTIVE UNKNOWN

§ Identity

Operator
Country
US
Launch date
2023-01-26
Launch site
AFETR
Launch vehicle
Mass (kg)
RCS (m²)

Purposes: comms

External: N2YO · Heavens-Above · Gunter

§ Orbital elements

Epoch: 2026-05-24T23:33:51.484032Z

Period
94.27 min
Inclination
43.0017°
Eccentricity
0.0000963
Mean motion
15.27565686 rev/d
Perigee alt
482.4 km
Apogee alt
483.8 km
Semi-major
6,861.2 km
B*
-6.0174e-5
RAAN
250.4524°
Arg perigee
302.3043°
Mean anomaly
57.7716°
Rev number
18,313

§ Raw data

STARLINK-56391 55365U 23013AL  26144.98184588 -.00001917  00000+0 -60174-4 0  99922 55365  43.0017 250.4524 0000963 302.3043  57.7716 15.27565686183136

JSON: /api/v1/satellites/55365 · /tle

For live sub-satellite position, see the globe view (requires WebGL).

§ Visibility from observer

Set your observer location to see the next 7 days of passes ≥ 10°. The values pass through the URL so the page stays shareable.

No JS? Fill the form by hand. The geolocation button needs JavaScript.